When you browse on this site, cookies collect data to enhance your experience and personalize the content and advertising you see.
Visit our Privacy Policy to learn more. By continuing to use the site, you agree to this use of cookies and data.
  • In Spain
  • List of Countries
  • For 7 days
  • Water Temperature
  • Weather Map
  • Weather Widgets
  • user-avatar
    Login

    Hourly Weather Lampa

    Today, 5 April, Sunday

    Time Temperature Precipitation Wind Pressure Humidity
    00:00 +10°C° 0 mm 0 mps 686 mmHg 80%
    01:00 +10°C° 0 mm 0 mps 687 mmHg 80%
    02:00 +10°C° 0 mm 0 mps 687 mmHg 80%
    03:00 +9°C° 0 mm 0 mps 687 mmHg 80%
    04:00 +9°C° 0 mm 0 mps 687 mmHg 80%
    05:00 +11°C° 0 mm 0 mps 687 mmHg 75%
    06:00 +12°C° 0 mm 0 mps 688 mmHg 70%
    07:00 +14°C° 0 mm 0 mps 689 mmHg 62%
    08:00 +18°C° 0 mm 1 mps 690 mmHg 54%
    09:00 +21°C° 0 mm 1 mps 690 mmHg 47%
    10:00 +23°C° 0 mm 2 mps 691 mmHg 40%
    11:00 +23°C° 0 mm 2 mps 691 mmHg 36%
    12:00 +24°C° 0 mm 3 mps 691 mmHg 33%
    13:00 +25°C° 0 mm 3 mps 691 mmHg 30%
    14:00 +25°C° 0 mm 3 mps 691 mmHg 29%
    15:00 +25°C° 0 mm 3 mps 691 mmHg 28%
    16:00 +25°C° 0 mm 3 mps 691 mmHg 28%
    17:00 +20°C° 0 mm 2 mps 691 mmHg 36%
    18:00 +18°C° 0 mm 1 mps 691 mmHg 45%
    19:00 +14°C° 0 mm 1 mps 691 mmHg 53%
    20:00 +13°C° 0 mm 1 mps 691 mmHg 52%
    21:00 +13°C° 0 mm 1 mps 691 mmHg 52%
    22:00 +12°C° 0 mm 1 mps 691 mmHg 51%
    23:00 +12°C° 0 mm 1 mps 691 mmHg 49%

    Tomorrow, 6 April, Monday

    Time Temperature Precipitation Wind Pressure Humidity
    00:00 +12°C° 0 mm 1 mps 690 mmHg 48%
    01:00 +12°C° 0 mm 1 mps 690 mmHg 47%
    02:00 +12°C° 0 mm 1 mps 690 mmHg 47%
    03:00 +12°C° 0 mm 1 mps 690 mmHg 47%
    04:00 +12°C° 0 mm 1 mps 690 mmHg 48%
    05:00 +13°C° 0 mm 1 mps 691 mmHg 43%
    06:00 +15°C° 0 mm 1 mps 691 mmHg 38%
    07:00 +18°C° 0 mm 1 mps 692 mmHg 33%
    08:00 +21°C° 0 mm 1 mps 692 mmHg 29%
    09:00 +24°C° 0 mm 1 mps 692 mmHg 24%
    10:00 +27°C° 0 mm 1 mps 693 mmHg 19%
    11:00 +28°C° 0 mm 2 mps 693 mmHg 18%
    12:00 +29°C° 0 mm 2 mps 693 mmHg 17%
    13:00 +30°C° 0 mm 3 mps 693 mmHg 16%
    14:00 +30°C° 0 mm 3 mps 692 mmHg 17%
    15:00 +29°C° 0 mm 3 mps 692 mmHg 18%
    16:00 +29°C° 0 mm 3 mps 692 mmHg 18%
    17:00 +25°C° 0 mm 2 mps 691 mmHg 29%
    18:00 +21°C° 0 mm 1 mps 691 mmHg 39%
    19:00 +16°C° 0 mm 1 mps 690 mmHg 50%
    20:00 +14°C° 0 mm 0 mps 690 mmHg 50%
    21:00 +14°C° 0 mm 0 mps 690 mmHg 49%
    22:00 +14°C° 0 mm 0 mps 690 mmHg 49%
    23:00 +13°C° 0 mm 0 mps 689 mmHg 49%

    Day after tomorrow, 7 April, Tuesday

    Time Temperature Precipitation Wind Pressure Humidity
    00:00 +13°C° 0 mm 0 mps 689 mmHg 49%
    01:00 +13°C° 0 mm 0 mps 689 mmHg 49%
    02:00 +13°C° 0 mm 0 mps 688 mmHg 49%
    03:00 +13°C° 0 mm 0 mps 688 mmHg 49%
    04:00 +13°C° 0 mm 0 mps 688 mmHg 48%
    05:00 +14°C° 0 mm 0 mps 689 mmHg 43%
    06:00 +16°C° 0 mm 0 mps 689 mmHg 38%
    07:00 +18°C° 0 mm 0 mps 690 mmHg 33%
    08:00 +23°C° 0 mm 1 mps 690 mmHg 28%
    09:00 +25°C° 0 mm 1 mps 691 mmHg 23%
    10:00 +28°C° 0 mm 1 mps 692 mmHg 18%
    11:00 +29°C° 0 mm 2 mps 692 mmHg 17%
    12:00 +30°C° 0 mm 3 mps 692 mmHg 17%
    13:00 +31°C° 0 mm 3 mps 692 mmHg 16%
    14:00 +30°C° 0 mm 3 mps 691 mmHg 18%
    15:00 +29°C° 0 mm 3 mps 691 mmHg 19%
    16:00 +28°C° 0 mm 3 mps 691 mmHg 21%
    17:00 +24°C° 0 mm 2 mps 690 mmHg 32%
    18:00 +20°C° 0 mm 1 mps 690 mmHg 42%
    19:00 +15°C° 0 mm 0 mps 689 mmHg 53%
    20:00 +14°C° 0 mm 0 mps 689 mmHg 53%
    21:00 +14°C° 0 mm 0 mps 689 mmHg 54%
    22:00 +13°C° 0 mm 0 mps 689 mmHg 54%
    23:00 +13°C° 0 mm 0 mps 689 mmHg 54%

    8 April, Wednesday

    Time Temperature Precipitation Wind Pressure Humidity
    00:00 +13°C° 0 mm 0 mps 688 mmHg 55%
    01:00 +12°C° 0 mm 0 mps 688 mmHg 55%
    02:00 +12°C° 0 mm 0 mps 688 mmHg 55%
    03:00 +12°C° 0 mm 0 mps 688 mmHg 55%
    04:00 +12°C° 0 mm 0 mps 688 mmHg 54%
    05:00 +14°C° 0 mm 0 mps 689 mmHg 50%
    06:00 +15°C° 0 mm 0 mps 689 mmHg 45%
    07:00 +17°C° 0 mm 0 mps 690 mmHg 40%
    08:00 +19°C° 0.2 mm 0 mps 690 mmHg 36%
    09:00 +24°C° 0.2 mm 1 mps 691 mmHg 31%
    10:00 +26°C° 0.2 mm 1 mps 692 mmHg 27%
    11:00 +27°C° 0.1 mm 2 mps 692 mmHg 26%
    12:00 +28°C° 0.1 mm 2 mps 692 mmHg 25%
    13:00 +29°C° 0.1 mm 3 mps 692 mmHg 25%
    14:00 +28°C° 0.1 mm 3 mps 692 mmHg 26%
    15:00 +27°C° 0.1 mm 3 mps 692 mmHg 28%
    16:00 +26°C° 0.1 mm 3 mps 692 mmHg 30%
    17:00 +23°C° 0 mm 2 mps 691 mmHg 40%
    18:00 +20°C° 0 mm 1 mps 691 mmHg 51%
    19:00 +15°C° 0 mm 1 mps 690 mmHg 62%
    20:00 +15°C° 0 mm 1 mps 690 mmHg 63%
    21:00 +13°C° 0 mm 0 mps 690 mmHg 64%
    22:00 +13°C° 0 mm 0 mps 689 mmHg 66%
    23:00 +12°C° 0 mm 0 mps 689 mmHg 66%

    9 April, Thursday

    Time Temperature Precipitation Wind Pressure Humidity
    00:00 +12°C° 0 mm 0 mps 689 mmHg 67%
    01:00 +12°C° 0 mm 0 mps 689 mmHg 68%
    02:00 +11°C° 0 mm 0 mps 689 mmHg 67%
    03:00 +11°C° 0 mm 0 mps 689 mmHg 67%
    04:00 +11°C° 0 mm 0 mps 689 mmHg 67%
    05:00 +13°C° 0 mm 0 mps 689 mmHg 62%
    06:00 +14°C° 0 mm 0 mps 690 mmHg 57%
    07:00 +16°C° 0 mm 0 mps 691 mmHg 52%
    08:00 +20°C° 0 mm 1 mps 691 mmHg 45%
    09:00 +23°C° 0 mm 1 mps 692 mmHg 38%
    10:00 +25°C° 0 mm 2 mps 692 mmHg 31%
    11:00 +26°C° 0 mm 2 mps 692 mmHg 30%
    12:00 +27°C° 0 mm 3 mps 692 mmHg 28%
    13:00 +28°C° 0 mm 3 mps 693 mmHg 27%
    14:00 +27°C° 0 mm 3 mps 692 mmHg 30%
    15:00 +26°C° 0 mm 3 mps 692 mmHg 33%
    16:00 +25°C° 0 mm 3 mps 692 mmHg 36%
    17:00 +21°C° 0 mm 2 mps 691 mmHg 49%
    18:00 +18°C° 0 mm 1 mps 691 mmHg 62%
    19:00 +14°C° 0 mm 1 mps 690 mmHg 74%
    20:00 +13°C° 0 mm 1 mps 690 mmHg 75%
    21:00 +13°C° 0 mm 1 mps 690 mmHg 76%
    22:00 +12°C° 0 mm 1 mps 690 mmHg 76%
    23:00 +11°C° 0 mm 0 mps 690 mmHg 76%

    10 April, Friday

    Time Temperature Precipitation Wind Pressure Humidity
    00:00 +11°C° 0 mm 0 mps 689 mmHg 75%
    01:00 +11°C° 0 mm 0 mps 689 mmHg 75%
    02:00 +10°C° 0 mm 0 mps 689 mmHg 75%
    03:00 +10°C° 0 mm 0 mps 689 mmHg 74%
    04:00 +10°C° 0 mm 0 mps 688 mmHg 74%
    05:00 +11°C° 0 mm 0 mps 689 mmHg 69%
    06:00 +13°C° 0 mm 0 mps 689 mmHg 65%
    07:00 +14°C° 0 mm 0 mps 689 mmHg 61%
    08:00 +19°C° 0 mm 1 mps 690 mmHg 52%
    09:00 +21°C° 0 mm 1 mps 690 mmHg 43%
    10:00 +24°C° 0 mm 1 mps 691 mmHg 34%
    11:00 +25°C° 0 mm 2 mps 691 mmHg 32%
    12:00 +26°C° 0 mm 2 mps 691 mmHg 29%
    13:00 +27°C° 0 mm 3 mps 691 mmHg 27%
    14:00 +27°C° 0 mm 3 mps 690 mmHg 29%
    15:00 +26°C° 0 mm 3 mps 690 mmHg 32%
    16:00 +25°C° 0 mm 3 mps 690 mmHg 34%
    17:00 +20°C° 0 mm 2 mps 689 mmHg 46%
    18:00 +18°C° 0 mm 1 mps 689 mmHg 57%
    19:00 +14°C° 0 mm 1 mps 688 mmHg 68%
    20:00 +12°C° 0 mm 0 mps 688 mmHg 70%
    21:00 +11°C° 0 mm 0 mps 688 mmHg 72%
    22:00 +11°C° 0 mm 0 mps 688 mmHg 74%
    23:00 +11°C° 0 mm 0 mps 688 mmHg 74%
    Show more